This is the latest recevied weather packets stored in our database for station/object OK1OBR-13. If no packets are shown the sender has not sent any weather packets the latest 1 day(s).
| Time | Temp. | Humidity | Pressure | Rain* | Wind** | Luminosity | Snow |
|---|---|---|---|---|---|---|---|
| 1778071861 | 20° C | 48% | 929 hPa | 0.25 mm | - | - | - |
| 1778071801 | 20° C | 47% | 928.9 hPa | 0.25 mm | - | - | - |
| 1778071441 | 19.44° C | 52% | 928.8 hPa | 0.25 mm | - | - | - |
| 1778071382 | 18.89° C | 52% | 928.9 hPa | 0.25 mm | - | - | - |
| 1778071262 | 18.89° C | 51% | 929.1 hPa | 0.25 mm | - | - | - |
| 1778070901 | 18.33° C | 52% | 929.1 hPa | 0.25 mm | - | - | - |
| 1778070782 | 18.33° C | 55% | 929.2 hPa | 0.25 mm | - | - | - |
| 1778070662 | 18.33° C | 54% | 929.4 hPa | 0.25 mm | - | - | - |
| 1778070301 | 18.33° C | 53% | 929.1 hPa | 0.25 mm | - | - | - |
| 1778069821 | 18.33° C | 54% | 929.3 hPa | 0.25 mm | - | - | - |
| 1778069701 | 18.33° C | 52% | 929.3 hPa | 0.25 mm | - | - | - |
| 1778069641 | 18.89° C | 54% | 929.4 hPa | 0.25 mm | - | - | - |
| 1778069521 | 18.89° C | 53% | 929.3 hPa | 0.25 mm | - | - | - |
| 1778069341 | 19.44° C | 52% | 929.4 hPa | 0.25 mm | - | - | - |
| 1778069282 | 19.44° C | 49% | 929.3 hPa | 0.25 mm | - | - | - |
| 1778069222 | 20° C | 53% | 929.5 hPa | 0.25 mm | - | - | - |
| 1778069101 | 20° C | 54% | 929.2 hPa | 0.25 mm | - | - | - |
| 1778068981 | 19.44° C | 52% | 929.4 hPa | 0.25 mm | - | - | - |
| 1778068861 | 19.44° C | 54% | 929.4 hPa | 0.25 mm | - | - | - |
| 1778068561 | 18.33° C | 55% | 929.5 hPa | 0.25 mm | - | - | - |
| 1778068502 | 18.33° C | 54% | 929.5 hPa | 0.25 mm | - | - | - |
| 1778068262 | 18.33° C | 54% | 929.5 hPa | 0.25 mm | - | - | - |
| 1778068021 | 18.33° C | 53% | 929.4 hPa | 0.25 mm | - | - | - |
| 1778067901 | 18.89° C | 50% | 929.5 hPa | 0.25 mm | - | - | - |
| 1778067842 | 19.44° C | 52% | 929.4 hPa | 0.25 mm | - | - | - |
* Rain since midnight (hover to see other rain measurements)
** Current wind speed in m/s (hover to see current wind gust speed)